Theta_e
324 322 318 314 313 312 311 311 311 312 313 313 312 312 312 312 313 312 311 311 311 310 311 312 311 312 312 311 310 310 308 308 307 306 307 309 312 317 319 322 324 324 324 323 320 319 318 318 318 318 320 321 321 322 323 323 324 325 326 326 327 328 328
320 319 316 314 315 314 313 312 312 312 313 313 313 313 313 313 313 313 312 311 311 311 311 311 311 311 311 310 310 309 308 308 307 306 305 305 309 313 316 320 322 323 323 322 321 321 320 319 318 318 319 321 322 321 322 323 324 325 326 327 327 326 325
316 314 313 314 316 316 315 313 312 312 312 313 313 314 314 314 314 313 313 311 311 311 311 310 310 310 310 309 309 308 308 308 308 307 306 305 305 308 312 314 316 317 319 320 321 321 321 320 319 318 318 320 322 321 321 322 323 322 322 323 324 322 320
314 314 314 317 319 320 318 314 312 312 312 313 313 314 314 314 314 313 313 312 311 311 311 310 311 310 309 309 308 308 308 308 308 307 307 307 306 306 307 308 311 313 314 317 319 320 320 320 320 320 319 319 321 322 321 320 320 320 320 320 320 320 319
317 318 320 322 324 324 322 319 315 312 312 313 313 314 314 313 313 313 312 312 311 310 310 311 311 311 309 308 308 308 308 307 308 307 306 307 306 306 306 306 308 312 315 316 318 318 318 319 319 320 320 320 320 321 321 320 318 318 319 318 318 318 319
325 326 327 328 327 326 327 326 320 313 311 313 313 313 314 313 313 313 313 312 311 310 310 310 311 310 309 307 307 307 307 307 307 306 305 305 305 305 306 307 308 311 316 317 317 318 317 318 319 319 319 319 319 319 319 319 317 316 316 317 316 317 318
329 328 329 329 329 328 328 328 325 317 312 312 313 313 314 313 313 313 313 312 311 310 310 310 310 309 308 307 306 306 307 306 306 305 304 304 304 304 305 307 308 310 313 315 316 317 317 317 317 318 318 318 317 317 316 316 316 316 316 316 316 316 317
328 328 328 329 330 330 329 328 327 320 313 312 313 313 313 313 313 313 312 312 311 310 309 309 309 308 308 307 305 305 306 305 305 304 304 304 303 304 305 307 309 310 311 313 314 314 315 315 316 316 316 316 315 315 313 313 313 314 315 315 316 316 316
327 328 329 329 328 328 328 327 327 322 315 313 312 312 313 312 313 313 312 312 310 309 309 309 308 308 308 306 304 304 305 304 304 304 305 304 302 302 304 307 311 312 312 312 313 313 313 314 314 314 314 314 314 314 313 312 311 312 313 314 314 315 315
327 327 328 327 326 325 325 326 326 324 321 317 313 312 313 313 312 313 313 311 310 309 309 309 309 308 307 305 304 304 303 303 303 303 303 303 302 302 303 306 310 312 313 313 313 314 314 314 314 314 314 314 314 314 313 313 312 311 311 312 313 313 313
327 326 325 326 326 325 324 325 326 326 324 322 317 314 315 314 313 313 313 311 310 309 309 310 309 308 307 305 304 304 303 302 301 301 301 301 302 304 305 306 308 310 311 312 312 313 313 313 313 313 313 313 313 313 313 312 312 312 311 311 311 311 312
326 325 324 325 325 325 325 325 326 326 325 325 323 320 317 315 314 314 313 311 311 310 309 309 309 309 308 306 304 304 302 301 301 300 301 302 304 305 306 306 306 308 309 310 311 312 313 313 312 313 312 312 312 312 312 311 311 311 311 310 310 310 310
325 325 325 324 324 325 326 325 325 325 325 325 325 323 320 317 315 314 313 311 311 311 309 309 310 309 308 307 305 303 302 301 301 301 301 302 303 305 307 308 307 305 306 307 308 310 312 312 311 311 310 311 311 310 311 311 310 310 310 310 310 309 309
323 324 325 325 325 325 325 325 324 324 324 324 324 323 321 320 318 316 314 312 311 311 310 310 310 310 310 308 306 304 303 302 301 301 301 301 302 304 305 307 308 307 307 306 306 307 308 309 309 309 309 308 309 309 309 310 310 310 310 310 309 309 309
321 322 323 324 325 325 324 324 323 323 323 323 322 322 322 322 321 320 316 312 312 312 311 311 312 311 310 309 308 306 304 302 302 301 301 301 301 303 304 306 308 309 309 308 308 307 307 307 308 309 309 308 308 308 308 308 309 309 309 309 309 309 308
320 320 321 322 323 323 324 324 323 322 323 323 322 322 322 322 321 321 318 314 312 313 312 312 313 312 311 310 309 307 305 304 303 301 300 300 300 301 302 304 306 307 308 308 308 308 307 307 307 308 308 309 308 308 308 308 308 308 308 308 308 308 308
319 320 320 320 321 322 322 323 323 322 323 323 323 322 322 321 320 320 319 314 312 312 313 313 314 313 312 311 310 309 306 304 303 301 300 299 298 299 300 302 304 306 306 307 307 307 307 307 307 307 307 308 308 308 308 308 308 308 308 308 308 307 307
318 319 319 319 320 320 321 321 321 322 322 322 322 321 321 320 319 318 317 314 312 313 314 314 315 314 313 313 312 310 307 305 304 302 301 299 298 298 298 300 303 304 306 306 307 307 307 307 307 306 306 306 307 307 307 308 308 308 307 307 307 306 306
316 318 319 319 319 319 320 320 320 321 321 321 321 320 319 319 318 318 316 315 315 315 315 314 315 315 315 314 313 311 308 306 304 302 301 299 298 298 298 299 300 302 304 305 306 307 307 307 307 307 306 306 306 306 307 307 307 307 307 306 306 306 306
315 316 317 318 319 319 319 320 320 319 320 320 320 320 319 319 319 317 316 316 317 316 316 316 316 316 315 315 314 312 310 307 304 302 301 299 298 297 297 297 299 300 302 303 305 306 307 307 307 307 307 307 306 307 307 307 307 307 307 306 306 306 305
315 315 315 316 317 318 319 319 320 319 319 319 319 319 319 319 319 318 317 317 317 317 316 316 316 316 315 315 314 313 311 308 305 302 300 299 298 297 297 297 298 300 302 303 303 304 305 306 306 306 306 307 307 307 307 307 307 307 307 306 306 305 305
315 315 315 315 316 317 318 319 319 319 319 319 319 319 319 319 319 319 318 318 317 317 317 316 316 316 315 314 314 313 312 310 306 303 300 298 297 296 296 296 298 301 302 303 303 303 304 305 305 306 307 307 307 307 307 307 307 307 306 305 305 304 303
315 315 315 315 314 315 317 318 319 319 319 319 319 319 319 319 319 319 318 318 317 317 317 316 316 316 315 315 314 313 313 311 308 304 300 297 296 296 296 296 298 301 302 302 303 303 304 305 306 307 307 307 307 307 307 307 306 306 305 303 302 301 301
315 315 315 315 314 315 316 317 318 318 318 318 318 318 319 319 319 319 318 318 317 317 317 316 316 316 316 315 314 314 314 312 310 306 301 297 296 295 296 296 298 301 302 302 303 303 304 305 306 307 308 308 307 307 306 305 305 303 302 300 298 297 299
314 314 314 315 315 315 316 316 317 317 317 317 317 317 317 317 318 318 319 319 318 317 316 316 316 316 316 314 314 315 314 312 310 307 302 297 295 295 296 297 299 302 303 303 303 303 304 305 306 307 307 306 306 305 305 304 303 301 300 299 297 295 299
313 312 313 314 314 315 315 315 316 316 317 317 317 317 316 316 316 317 317 318 318 317 317 316 316 316 315 314 314 315 314 312 311 308 303 298 296 296 296 297 300 302 303 304 303 303 304 306 306 305 305 305 304 304 303 303 302 301 300 299 297 295 298
312 311 312 313 313 314 314 314 315 315 316 317 317 317 317 317 317 317 316 316 317 317 317 317 317 317 316 315 315 314 313 312 312 309 305 301 298 296 295 297 300 302 303 304 303 303 304 305 304 303 303 304 304 303 302 302 302 302 301 299 297 294 296
312 311 311 311 311 312 313 314 315 315 315 316 317 317 317 317 317 316 315 315 315 316 316 316 316 316 316 315 315 314 313 312 312 310 307 303 299 296 296 300 302 303 303 303 303 303 305 305 304 302 301 302 303 302 301 301 301 301 301 299 296 294 296
310 310 311 311 311 311 312 313 314 315 315 316 317 316 316 317 317 316 315 315 315 314 314 315 315 314 314 314 314 313 313 312 312 310 307 304 299 296 298 302 304 304 303 303 303 304 304 304 303 300 298 300 301 301 299 298 299 300 300 298 296 295 297
310 309 310 311 311 311 311 311 312 313 314 315 316 316 316 316 317 317 317 316 315 314 313 313 314 315 314 314 313 314 313 312 312 310 307 303 299 297 299 303 305 304 303 303 304 304 304 304 302 299 298 298 299 298 296 296 297 298 298 296 296 297 300
309 309 309 310 311 311 312 311 310 311 312 313 314 314 315 316 316 316 317 317 317 316 314 313 313 315 315 314 314 313 313 312 312 311 307 302 298 297 299 303 305 303 301 301 302 302 300 299 298 297 296 296 296 295 294 294 294 295 296 294 295 299 302
309 308 307 308 310 311 312 312 310 310 310 311 313 313 313 314 315 316 316 316 317 317 316 314 314 315 315 315 314 313 313 312 312 312 308 302 298 298 299 302 305 303 301 300 298 296 296 297 296 295 294 293 293 293 293 293 293 293 293 292 294 298 302
308 307 306 308 309 311 312 312 311 310 310 311 312 313 313 313 314 315 316 316 315 316 316 316 315 315 315 315 314 313 313 312 312 312 308 302 299 298 299 302 304 304 304 303 299 297 299 301 301 300 297 294 293 293 293 293 293 293 293 292 293 297 301
307 306 307 308 309 310 311 311 311 310 311 311 312 312 313 313 313 315 315 316 315 315 315 315 315 315 315 315 314 313 313 313 312 311 308 304 301 298 299 301 303 304 305 305 303 302 304 304 303 303 301 296 293 293 293 293 293 293 293 293 292 295 300
306 306 307 308 309 309 310 311 312 311 310 311 311 312 312 313 313 313 314 315 315 315 315 314 314 314 314 314 313 313 313 313 312 311 309 306 303 299 298 299 302 304 305 305 304 304 304 304 304 303 301 297 293 293 293 293 293 293 293 293 292 295 299
306 307 307 308 309 309 309 310 311 311 311 310 311 311 312 313 313 313 313 314 314 314 314 314 313 313 313 313 313 313 313 313 313 312 310 308 305 300 298 298 300 303 305 305 304 304 304 304 304 303 300 296 293 293 293 293 293 293 293 293 293 297 300
306 307 307 308 308 308 309 309 309 310 310 310 310 310 311 312 312 312 312 313 313 313 313 313 313 313 313 313 313 313 313 313 313 312 311 309 307 304 301 298 297 300 304 306 305 304 305 304 304 303 301 296 293 293 293 292 293 293 292 293 295 299 301
Wind_Speed
15 13 12 12 12 11 10 9 8 8 7 7 7 6 5 4 3 2 2 2 2 3 3 3 4 5 6 7 7 7 6 6 6 7 9 9 8 8 8 7 6 5 4 3 3 2 2 4 5 5 5 3 1 4 6 6 6 5 4 3 3 5 6
16 15 14 14 15 13 11 12 11 10 9 8 8 7 7 5 4 3 2 2 3 3 3 4 5 5 5 6 6 5 4 4 5 6 7 8 9 10 10 9 8 7 5 5 4 3 2 4 5 5 6 5 3 2 3 4 3 2 3 4 4 2 1
17 17 17 17 16 14 13 13 13 13 12 11 10 10 8 7 5 4 3 3 3 4 4 5 5 4 3 3 5 5 4 3 4 5 6 8 9 11 11 11 10 9 8 8 7 5 4 5 6 6 7 7 5 2 3 4 4 3 3 3 5 6 4
19 19 19 19 18 16 15 15 15 15 15 14 13 12 10 8 6 5 5 4 4 5 5 5 4 3 3 3 3 4 4 4 3 4 5 7 8 9 10 10 10 9 9 9 9 7 7 7 7 8 8 9 9 6 3 4 3 2 3 3 3 4 4
19 20 21 20 19 18 17 17 17 18 18 17 16 14 12 10 8 7 6 5 5 5 5 5 4 4 4 4 3 4 3 4 4 4 4 5 5 7 8 9 9 9 9 9 8 7 8 8 8 9 10 10 10 9 7 4 2 2 3 1 0 2 4
20 21 21 21 21 21 20 20 20 21 21 20 19 17 14 12 11 9 7 7 7 6 6 5 4 5 5 5 4 5 4 4 4 5 6 6 6 7 7 8 9 10 10 9 9 8 8 9 9 10 10 11 11 11 11 9 5 4 4 2 2 3 4
22 23 23 23 23 24 24 23 23 23 23 23 21 19 16 14 14 11 9 9 8 7 7 5 5 5 6 6 6 6 6 6 6 6 6 6 7 8 8 8 10 11 11 11 11 11 10 10 10 11 11 11 12 12 12 12 10 7 6 6 4 3 5
24 25 26 26 25 25 25 25 25 24 24 24 22 20 18 17 16 13 12 11 9 9 8 7 6 6 7 7 7 8 8 8 8 7 5 5 6 7 8 9 10 10 10 10 11 11 11 10 11 11 11 11 11 12 13 14 13 11 10 9 7 7 8
27 28 29 28 25 24 25 24 24 24 24 24 23 22 21 19 18 16 14 12 11 11 10 8 7 7 7 7 6 7 8 7 7 7 6 6 6 8 9 9 10 9 9 10 11 11 10 10 10 10 11 11 11 11 12 13 13 12 12 11 9 10 12
30 30 30 27 23 22 23 23 24 24 24 24 25 24 23 21 20 18 15 13 12 12 11 9 8 7 7 6 6 6 7 6 5 5 6 7 7 8 9 11 11 10 10 11 12 12 12 10 10 10 10 11 11 11 11 12 14 13 12 12 11 13 15
32 31 28 26 24 24 25 25 24 23 23 23 24 24 23 23 22 19 17 15 13 13 13 10 9 7 6 6 5 5 5 5 5 5 5 6 7 8 9 10 11 12 13 13 13 14 14 13 13 12 11 11 12 12 12 11 11 11 12 12 13 16 17
33 33 31 30 29 28 28 27 25 24 24 23 23 24 24 24 24 21 18 16 15 14 13 12 10 8 7 5 4 5 5 5 6 6 6 6 6 7 8 8 10 12 14 15 16 15 15 14 14 14 14 14 14 13 13 11 9 9 11 13 14 16 18
23 28 31 32 32 30 28 27 27 26 24 26 27 25 24 25 24 22 19 18 18 16 14 12 10 8 7 5 4 4 5 6 6 6 6 6 7 7 9 9 10 11 12 14 16 18 17 16 15 15 15 16 16 16 14 12 11 11 13 14 14 16 18
17 19 23 27 31 31 29 28 28 26 25 28 29 25 24 25 23 22 21 19 19 17 15 13 12 9 7 4 4 4 5 6 6 5 6 6 7 9 9 10 9 9 9 10 12 14 16 16 16 15 15 15 15 16 16 15 14 15 15 16 16 17 18
17 18 18 20 23 27 29 30 26 24 25 28 29 27 26 25 22 21 22 21 20 17 15 14 13 10 7 5 4 5 6 6 5 6 6 6 7 8 9 8 8 9 10 11 11 12 13 14 15 15 15 15 15 16 17 17 17 18 18 18 18 18 19
16 17 18 17 18 20 24 28 25 22 24 28 28 27 27 25 23 22 22 22 20 17 16 16 14 10 7 6 5 6 7 6 6 6 6 7 7 8 9 10 10 11 12 13 13 13 13 13 15 16 16 17 17 16 17 17 18 18 19 19 19 20 20
15 16 17 17 17 17 17 22 25 22 22 26 27 27 28 28 26 24 22 22 20 18 17 16 13 10 9 7 7 8 7 6 6 6 6 8 9 9 11 12 13 13 13 13 13 13 13 13 13 15 16 18 18 18 18 18 18 18 19 20 21 22 22
18 16 15 15 16 15 14 16 22 23 23 25 26 26 27 27 23 20 21 22 21 19 17 15 14 12 11 10 10 10 8 7 7 7 7 9 10 11 12 13 13 14 14 14 14 14 14 13 12 11 12 14 16 17 18 18 18 18 18 19 20 20 20
19 18 16 15 15 14 14 14 17 22 24 24 23 23 24 23 19 17 19 20 20 18 17 16 15 13 13 13 13 11 9 9 8 8 9 10 11 11 12 12 13 13 14 15 16 17 16 15 13 12 11 11 11 12 14 15 15 15 15 14 15 16 15
17 17 17 15 15 15 15 14 14 17 20 21 20 20 22 22 20 19 20 21 19 18 17 17 16 15 15 15 15 12 10 10 10 9 10 11 11 12 13 13 14 14 14 14 14 16 17 16 15 14 13 12 11 10 11 11 11 12 12 13 13 14 14
16 15 15 15 15 15 16 16 15 16 17 19 21 21 21 21 21 23 24 23 21 19 19 19 18 17 18 18 15 13 11 12 12 11 11 12 12 13 14 14 14 14 14 14 13 13 15 16 17 16 15 13 13 12 12 11 11 12 12 13 13 14 12
16 15 14 14 14 13 14 16 18 18 18 19 19 19 19 20 21 24 25 25 24 23 21 21 21 20 20 18 15 13 13 13 13 12 12 13 13 14 15 15 15 15 16 16 15 14 14 15 16 16 16 14 13 13 13 12 12 11 11 10 9 7 4
19 17 15 14 12 11 11 13 17 19 21 21 21 20 20 21 21 23 24 26 27 26 24 24 24 23 21 18 15 15 15 15 14 13 13 13 13 14 15 15 15 16 17 16 15 15 14 14 14 14 13 12 12 11 11 11 10 8 6 3 1 2 4
21 19 18 16 14 11 9 10 13 17 21 23 24 23 22 22 21 21 22 25 27 25 24 25 26 25 22 18 18 19 18 17 15 13 13 13 13 14 15 16 16 16 16 16 16 16 15 13 12 10 9 9 8 7 7 6 5 3 3 4 5 6 6
22 21 19 18 17 14 11 10 10 12 17 21 25 27 26 26 25 22 22 24 26 26 25 25 27 26 22 20 22 22 20 18 16 13 13 13 14 15 15 16 16 16 16 17 17 17 16 13 9 7 6 5 5 5 5 5 5 5 5 5 5 6 6
21 22 20 19 18 17 16 14 11 10 11 15 20 26 29 29 30 29 28 27 27 28 28 28 28 27 24 23 25 25 21 18 16 14 13 13 13 14 15 15 16 16 17 19 19 19 15 10 7 6 5 5 5 5 5 5 6 5 3 3 4 5 5
20 21 20 20 21 19 18 16 14 12 10 10 13 17 21 24 26 28 29 27 26 27 28 28 27 26 26 25 26 25 21 18 16 15 13 12 12 13 14 14 15 16 18 20 21 19 12 7 7 6 6 6 6 6 6 6 6 4 2 2 3 4 4
20 21 19 20 22 22 20 18 14 13 12 10 10 10 12 15 18 21 23 23 24 25 25 24 24 24 26 26 26 24 21 18 17 15 13 12 11 11 11 11 11 15 19 21 20 16 10 8 8 7 7 7 7 6 5 5 5 4 3 1 2 3 3
20 21 18 18 21 21 21 19 16 13 13 13 11 10 9 11 14 18 21 24 26 28 26 25 25 25 27 27 26 24 21 19 17 15 13 11 9 9 9 8 7 11 14 15 13 11 10 9 8 7 6 6 6 6 5 4 3 3 3 1 1 2 4
18 19 18 17 19 19 20 20 18 15 14 14 13 12 10 9 10 14 18 21 25 29 30 28 27 27 29 30 26 23 21 19 17 15 13 10 8 8 9 6 5 8 8 6 6 7 8 7 6 6 5 4 5 5 5 4 4 4 3 2 1 3 6
16 18 19 18 18 18 17 16 18 18 16 14 14 14 12 11 10 10 12 14 18 24 29 30 29 30 32 31 27 23 21 19 18 16 13 10 8 8 9 6 2 4 3 3 5 5 5 4 4 3 3 3 5 6 7 7 7 6 5 4 2 5 8
16 18 20 19 18 16 14 13 17 19 18 15 14 14 13 12 11 10 10 10 12 16 21 24 28 30 32 31 27 24 22 21 19 17 13 10 8 8 10 7 2 1 1 1 3 4 4 2 0 1 3 4 5 7 8 9 9 8 7 5 4 6 7
17 20 21 19 16 14 12 12 16 18 18 16 14 14 13 12 10 10 10 10 9 10 12 13 17 22 26 28 28 25 23 21 19 17 13 10 9 9 10 8 5 5 3 3 3 3 2 2 3 4 5 6 7 7 8 9 9 9 8 6 5 7 7
19 21 21 19 15 12 11 12 14 16 17 16 15 13 12 12 10 9 9 10 10 10 10 10 12 15 19 24 26 24 21 19 19 17 13 11 10 10 11 9 7 7 5 5 6 6 5 6 6 7 8 8 8 8 8 8 9 9 7 6 7 8 8
19 20 19 17 15 12 10 10 12 14 15 16 15 13 11 11 11 10 9 10 10 10 11 12 12 13 16 20 22 20 19 19 19 17 14 12 11 10 11 11 10 9 8 8 8 9 9 9 9 9 9 10 10 9 8 8 9 9 8 7 7 9 10
17 16 17 16 15 13 10 8 9 11 13 14 14 12 11 11 11 11 10 10 10 11 12 13 13 13 14 17 19 20 20 21 21 19 17 15 12 11 13 13 12 11 12 11 11 11 11 11 10 9 10 11 11 10 10 9 10 10 9 8 7 10 12
14 14 16 16 16 15 12 10 9 9 10 12 13 12 11 11 10 11 11 10 10 11 11 12 13 15 15 16 18 21 22 22 22 22 20 18 16 15 15 15 14 14 14 14 14 13 14 13 12 11 12 13 13 12 11 11 10 10 10 8 8 11 12
Wind_Direction
244 253 254 247 240 230 220 219 220 214 208 203 202 204 209 221 230 225 227 240 251 251 253 263 271 277 278 277 280 278 272 261 249 244 244 243 237 231 230 225 222 219 202 188 206 221 210 203 203 197 182 143 127 225 224 227 229 239 246 253 306 309 292
240 247 248 243 239 229 217 217 220 217 211 206 207 207 207 212 218 220 226 247 267 267 260 270 285 293 288 284 285 281 269 257 250 245 241 239 235 232 232 227 224 223 218 216 220 212 198 218 222 217 202 175 140 144 190 204 200 180 185 193 200 204 251
232 236 237 236 237 235 226 221 221 222 219 214 212 210 211 213 207 208 229 255 266 269 273 285 298 306 301 289 291 297 295 265 242 239 237 236 236 236 236 235 235 234 229 223 222 211 195 210 223 231 230 213 198 162 124 135 139 137 155 188 183 164 154
228 231 234 234 236 237 234 230 227 225 224 220 218 215 213 214 210 210 223 246 257 258 265 278 288 298 308 308 297 304 312 303 279 249 238 235 235 238 240 241 239 236 229 221 221 217 210 216 223 230 237 233 229 230 188 132 127 168 197 213 220 200 192
232 232 235 239 241 241 240 240 237 231 225 221 221 221 217 217 220 219 223 236 249 253 257 265 270 276 291 297 286 288 300 303 299 287 272 255 239 238 238 235 231 229 226 222 222 224 225 231 232 234 239 239 239 240 234 209 169 212 225 193 214 234 217
239 239 242 245 247 248 248 248 245 237 227 223 223 223 220 220 223 224 226 234 240 247 252 260 267 273 278 277 274 283 287 281 280 285 290 282 263 248 234 224 221 220 224 227 228 229 232 240 242 243 246 246 246 245 243 237 216 207 226 200 137 145 168
241 243 246 248 250 250 251 253 252 245 234 229 228 225 221 221 225 226 226 231 238 244 249 252 260 265 267 267 263 268 275 276 277 279 280 278 270 259 240 223 217 217 222 229 235 237 238 244 248 249 251 253 253 250 247 247 240 228 229 230 218 200 191
243 243 245 248 251 253 256 258 259 254 243 235 231 229 225 222 225 226 225 230 236 241 244 243 246 248 251 260 261 258 263 270 276 280 271 257 255 256 246 230 223 224 226 228 233 238 242 247 251 254 255 256 259 258 253 251 251 246 241 241 244 246 238
245 246 246 242 241 244 251 260 264 260 251 242 234 230 228 226 226 227 226 228 230 233 238 236 234 236 242 256 265 261 263 267 271 277 272 261 253 248 241 233 228 229 229 228 230 235 241 248 255 260 262 262 263 264 261 257 253 250 247 246 249 253 253
249 253 254 245 236 235 241 250 258 260 258 249 238 231 230 229 229 228 227 229 229 228 232 232 229 232 240 255 268 270 276 280 277 273 264 259 254 244 239 235 232 232 234 234 235 238 241 245 252 259 264 268 267 266 265 263 258 254 253 252 252 255 258
259 267 271 263 253 246 243 243 245 250 256 253 244 236 233 232 231 229 227 230 231 228 230 231 229 229 236 251 265 274 287 292 287 280 268 256 250 245 243 238 234 234 236 236 238 240 243 245 248 253 258 263 265 263 259 258 262 262 258 253 251 254 259
268 271 273 270 263 253 247 244 240 241 247 249 246 243 238 234 232 229 226 230 232 228 229 232 229 228 232 246 268 275 281 287 289 289 280 267 258 253 250 245 240 236 235 235 236 240 246 250 251 252 254 255 257 257 252 249 253 254 252 252 252 254 257
282 271 266 264 264 258 250 245 242 240 243 243 241 242 240 236 233 231 227 229 231 229 229 231 231 228 229 246 272 277 279 284 289 291 283 274 269 263 258 257 255 249 241 238 237 240 244 249 253 255 255 254 251 249 246 247 249 249 255 262 264 262 260
311 292 274 265 264 260 251 246 243 241 243 240 234 237 242 239 235 235 232 230 232 231 229 230 233 230 228 247 275 288 292 289 287 285 282 277 269 263 260 259 261 260 256 251 245 243 244 245 250 254 253 250 247 245 244 246 250 251 256 263 267 269 269
321 314 301 284 276 268 254 246 244 240 239 238 234 235 238 236 235 238 238 235 233 231 230 231 234 233 233 250 280 295 293 288 290 291 288 282 273 266 264 262 260 257 258 261 261 258 255 251 249 249 248 248 248 249 249 250 252 255 257 260 263 267 271
322 316 315 308 300 289 267 251 245 239 235 234 232 228 227 229 234 239 240 237 233 231 230 233 237 240 244 256 279 291 291 297 302 300 296 292 288 282 278 273 267 263 262 263 263 262 262 259 255 252 250 250 252 254 256 256 257 259 262 267 271 274 276
322 313 313 315 312 309 290 261 248 243 237 233 228 224 224 226 227 232 238 238 234 230 229 233 240 246 252 263 280 285 294 309 306 299 300 299 298 293 285 280 276 274 273 272 270 269 269 268 265 260 256 255 255 256 258 259 261 264 269 276 281 285 286
324 315 309 311 310 309 304 278 254 245 241 238 231 225 228 227 220 222 232 234 231 227 229 236 242 248 256 266 276 284 297 307 302 300 302 299 298 295 287 281 278 276 276 275 275 277 277 276 273 267 262 258 256 256 257 260 263 268 273 280 285 288 289
330 323 314 307 304 299 297 290 267 250 246 245 237 225 227 228 218 214 223 227 228 228 231 236 240 247 258 265 271 281 296 301 297 298 298 295 298 298 290 284 280 278 275 273 273 274 275 275 274 273 271 265 258 255 255 257 260 265 271 278 284 289 292
333 329 323 314 305 294 287 288 281 266 259 260 257 249 242 235 222 214 219 223 226 227 228 232 237 244 254 261 267 276 292 300 297 296 298 297 299 299 294 290 286 283 277 274 272 271 270 270 270 269 268 267 264 260 256 255 259 266 274 280 285 288 291
335 333 331 323 315 303 289 281 278 274 269 267 269 267 258 246 229 219 217 216 220 225 227 230 233 239 247 253 260 272 286 296 295 295 298 297 296 298 298 294 289 285 281 280 279 277 274 272 270 268 266 266 267 266 266 268 269 275 281 285 285 284 284
344 338 334 330 326 316 297 279 269 267 266 265 264 259 255 250 238 227 219 210 212 219 224 228 231 237 243 248 258 270 276 283 290 295 293 289 290 295 296 293 289 285 282 283 285 287 285 280 277 273 269 268 268 269 271 272 273 278 283 283 279 274 279
354 347 341 337 331 321 305 286 271 263 261 262 261 256 251 247 241 235 226 215 213 218 221 224 230 238 241 246 258 264 265 271 282 291 289 282 284 291 293 292 288 284 284 286 288 289 288 285 281 274 266 264 265 265 267 268 271 273 270 258 181 106 95
359 356 350 347 344 333 315 295 278 267 261 260 262 263 260 252 243 236 229 222 221 225 223 221 227 235 238 246 257 257 257 264 273 284 288 282 280 285 288 290 287 284 288 293 295 294 294 290 279 264 256 256 252 249 252 253 246 215 161 119 92 86 96
358 359 354 352 352 349 338 320 299 279 266 261 261 262 262 259 252 244 235 228 225 224 222 222 228 233 238 250 259 255 253 258 267 280 285 278 275 278 282 285 284 283 287 290 291 294 293 285 265 244 241 241 226 223 227 212 182 154 127 102 80 81 102
356 359 357 354 352 349 343 334 325 307 284 269 263 261 260 260 259 255 248 241 236 230 226 226 231 235 238 246 252 251 249 252 261 273 278 276 274 276 280 283 280 280 281 280 285 291 287 266 232 217 216 205 194 198 198 181 170 162 135 106 84 80 102
355 358 0 360 356 350 344 337 331 326 312 288 273 266 262 259 259 258 254 251 251 246 237 234 237 240 241 241 244 245 245 248 256 266 275 280 279 280 284 286 284 283 279 275 280 284 271 223 190 198 203 195 195 198 192 183 182 190 179 120 91 79 110
348 350 355 358 356 354 351 345 336 328 325 317 302 288 273 262 256 254 253 253 255 255 249 245 247 249 246 242 240 242 243 246 253 262 273 282 286 288 288 287 290 288 279 274 275 269 241 199 184 191 196 197 203 210 214 211 205 212 223 165 94 79 132
341 340 343 347 348 350 352 352 345 331 326 327 320 307 290 274 259 254 253 251 250 251 251 249 252 254 249 242 238 240 242 244 250 259 269 280 287 287 280 283 309 305 284 269 262 245 215 194 183 179 181 192 207 225 241 244 234 238 243 228 80 93 153
337 334 333 335 339 341 343 350 352 343 331 327 322 314 304 291 275 266 263 259 253 250 249 249 251 251 245 238 236 238 240 241 248 256 264 273 278 276 267 269 326 327 292 243 215 204 190 179 174 172 176 190 214 243 265 274 277 274 268 269 274 142 156
334 330 326 325 330 334 336 343 350 349 340 330 322 314 305 300 295 285 276 274 269 259 250 246 248 249 246 240 238 239 239 239 245 254 261 265 264 259 258 258 331 343 301 175 146 151 155 156 164 177 199 223 242 263 275 281 283 282 279 277 230 167 162
332 329 325 320 322 326 329 336 345 346 341 335 329 321 310 300 300 300 288 280 279 271 259 250 249 250 248 243 239 237 235 237 245 254 258 259 257 252 252 250 193 139 279 245 143 146 140 139 200 281 285 277 272 272 275 277 280 280 281 276 227 185 172
335 331 328 323 319 318 324 335 341 343 341 338 335 332 323 307 298 304 303 290 280 278 275 264 254 251 249 246 241 235 232 236 247 255 254 251 255 256 252 245 210 190 231 264 229 199 205 277 296 311 311 302 291 279 273 274 276 274 274 267 232 200 183
332 329 327 327 325 318 318 329 337 341 344 342 337 337 336 324 307 299 300 299 292 283 278 274 266 260 256 251 243 235 235 243 250 252 251 247 249 253 253 248 232 216 225 241 243 251 269 279 290 305 310 306 298 287 276 272 269 267 264 253 229 206 194
328 323 319 324 332 328 317 320 331 339 345 345 340 337 340 337 325 309 295 292 292 286 279 273 267 264 261 255 246 241 244 250 251 250 250 247 244 249 253 252 245 236 234 239 249 260 267 273 284 298 305 304 298 291 285 275 268 264 257 245 226 205 200
324 316 312 318 330 336 334 332 336 342 345 344 341 340 341 342 336 326 312 295 285 282 280 276 270 266 261 255 251 247 246 248 249 249 249 248 244 244 250 254 254 249 244 243 248 255 260 267 277 289 298 301 297 293 289 278 267 262 254 240 218 198 199
323 316 314 316 320 326 330 332 338 347 346 339 336 337 337 336 334 333 328 314 295 286 283 281 277 269 261 254 252 250 247 247 249 247 247 248 247 242 242 247 253 255 253 250 247 249 254 261 271 280 289 294 293 290 287 277 266 259 250 232 209 197 199